This demonstration page uses our WeatherBlox Daily Observations layout. Learn more.

Left ArrowRight Arrow

39.08367, -84.50855

Hourly Observations for July 9, 2015

Temp ( °F °C ) Dew Point ( °F °C ) Humidity (%) Winds ( mph kmh ) Pressure ( in mb ) Visibility ( mi km ) Precip ( " mm )
12:33 am 00:33 Mostly Cloudy with Fog 69 20.6 69 20.6 100 100 Calm 30.00 1016 0 0 0.00 0.00
12:49 am 00:49 Mostly Cloudy with Fog 70 21 70 21 100 100 Calm 30.00 1016 1 1 0.00 0.00
12:53 am 00:53 Mostly Cloudy with Fog 69 20.6 69 20.6 100 100 Calm 30.00 1016 0 0 0.00 0.00
1:12 am 01:12 Mostly Cloudy with Fog 68 20 68 20 100 100 Calm 29.97 1015 1 1 0.00 0.00
1:53 am 01:53 Mostly Cloudy with Fog 68 20 68 20 100 100 Calm 29.98 1015 0 0 0.00 0.00
2:04 am 02:04 Mostly Cloudy with Fog 66 19 66 19 100 100 Calm 29.97 1015 0 0 0.00 0.00
2:27 am 02:27 Mostly Cloudy with Mist and Fog 67 19.4 67 19.4 100 100 SSW 5 7 29.94 1014 1 1 0.00 0.00
2:32 am 02:32 Partly Cloudy with Mist and Fog 66 19 66 19 100 100 SW 7 11 29.94 1014 3 4 0.00 0.00
2:39 am 02:39 Partly Cloudy with Mist and Fog 69 20.6 69 20.6 100 100 SW 7 11 29.94 1014 5 8 0.00 0.00
2:53 am 02:53 Clear with Mist and Fog 69 20.6 69 20.6 100 100 SSW 7 11 29.97 1015 6 10 0.00 0.00
3:53 am 03:53 Clear 71 21.7 71 21.7 100 100 S 9 15 29.95 1014 10 16 0.00 0.00
4:53 am 04:53 Clear 72 22.2 71 21.7 97 97 SSW 7 11 29.93 1014 10 16 0.00 0.00
5:53 am 05:53 Mostly Clear 73 22.8 71 21.7 94 94 SSW 9 15 29.93 1013 10 16 0.00 0.00
6:53 am 06:53 Sunny 74 23.3 71 21.7 91 91 SSW 12 19 29.95 1014 10 16 0.00 0.00
7:53 am 07:53 Mostly Cloudy 74 23.3 71 21.7 91 91 SSW 15 24 29.95 1014 10 16 0.00 0.00
8:53 am 08:53 Cloudy 74 23.3 70 21.1 88 88 SSW 15 24 29.95 1014 10 16 0.00 0.00
9:45 am 09:45 Cloudy 73 22.8 70 21.1 90 90 SW 15 24 29.94 1014 10 16 0.00 0.00
9:53 am 09:53 Cloudy 74 23.3 70 21.1 88 88 SW 12 19 29.97 1015 10 16 0.00 0.00
10:53 am 10:53 Cloudy 74 23.3 70 21.1 88 88 SW 15 24 29.97 1015 10 16 0.00 0.00
11:53 am 11:53 Cloudy with Rain 73 22.8 71 21.7 94 94 WSW 9 15 29.99 1016 3 4 0.00 0.03
12:09 pm 12:09 Cloudy with Light Rain 74 23.3 72 22.2 94 94 WSW 6 9 29.97 1015 3 5 0.02 0.51
12:14 pm 12:14 Cloudy with Light Rain 73 23 72 22 94 94 WSW 8 13 29.97 1015 3 5 0.00 0.00
12:16 pm 12:16 Cloudy with Light Rain 73 23 72 22 94 94 WSW 9 15 29.97 1015 3 5 0.00 0.00
12:53 pm 12:53 Cloudy 77 25 72 22.2 85 85 SW 12 19 29.99 1016 10 16 0.02 0.51
1:53 pm 13:53 Mostly Sunny 81 27.2 72 22.2 74 74 W 17 28 29.99 1016 10 16 0.01 0.25
2:53 pm 14:53 Mostly Cloudy 82 27.8 69 20.6 65 65 W 15 24 29.99 1016 10 16 0.00 0.00
3:53 pm 15:53 Mostly Sunny 81 27.2 68 20 65 65 WSW 15 24 29.98 1015 10 16 0.00 0.00
4:53 pm 16:53 Cloudy 80 26.7 68 20 67 67 W 15 24 29.98 1015 10 16 0.00 0.00
5:53 pm 17:53 Cloudy 80 26.7 68 20 67 67 WSW 15 24 29.99 1016 10 16 0.00 0.00
6:53 pm 18:53 Cloudy 78 25.6 67 19.4 69 69 SW 14 22 30.01 1016 10 16 0.00 0.00
7:53 pm 19:53 Cloudy 77 25 67 19.4 71 71 W 9 15 30.02 1017 10 16 0.00 0.00
8:53 pm 20:53 Cloudy 75 23.9 69 20.6 82 82 WNW 6 9 30.03 1017 10 16 0.00 0.03
9:53 pm 21:53 Cloudy 75 23.9 69 20.6 82 82 NNW 5 7 30.04 1017 10 16 0.00 0.00
10:53 pm 22:53 Cloudy 72 22.2 66 18.9 82 82 NNW 8 13 30.06 1018 10 16 0.00 0.00
11:53 pm 23:53 Clear 70 21.1 65 18.3 84 84 WNW 5 7 30.07 1018 10 16 0.00 0.00

Powered by AerisWeather